Weather History for TJPS - December, 2012

Change the Weather History Date:

Thursday, December 20, 2012

  Actual Average Record
Temperature  
Mean Temperature 76 °F -  
Max Temperature 87 °F 86 °F 89 °F (2001)
Min Temperature 66 °F 68 °F 64 °F (1997)
Cooling Degree Days 12    
Growing Degree Days 26 (Base 50)    
Moisture  
Dew Point 65 °F    
Average Humidity 69    
Maximum Humidity 94    
Minimum Humidity 49    
Precipitation  
Precipitation 0.00 in - - ()
Sea Level Pressure  
Sea Level Pressure 29.95 in    
Wind  
Wind Speed 3 mph (NE)    
Max Wind Speed 12 mph    
Max Gust Speed -    
Visibility 10 miles    
Events      
Averages and records for this station are not official NWS values.
T = Trace of Precipitation, MM = Missing Value Source: NWS Daily Summary

Daily Weather History Graph

Daily Weather History Graph

Search for Another Location

Airport or City:

Trip Planner

Search our weather history database for the weather conditions in past years. The results will help you decide how hot, cold, wet, or windy it might be!

Date:

Astronomy

Dec. 20, 2012 Rise Set
Actual Time 6:52 AM AST 5:55 PM AST
Civil Twilight 6:28 AM AST 6:19 PM AST
Nautical Twilight 6:01 AM AST 6:46 PM AST
Astronomical Twilight 5:34 AM AST 7:13 PM AST
Moon 12:31 PM AST (12/20) 12:20 AM AST (12/20)
Length of Visible Light 11h 50m
Length of Day
11h 03m
First Quarter, 54% of the Moon is Illuminated
Dec 20
First Quarter
Dec 28
Full
Jan 4
Last Quarter
Jan 11
New
Jan 18
First Quarter

Hourly Weather History & Observations

Time (AST) Temp. Heat Index Dew Point Humidity Pressure Visibility Wind Dir Wind Speed Gust Speed Precip Events Conditions
1:50 AM 71.6 °F - 64.4 °F 78% 29.98 in 10.0 mi Calm Calm - N/A   Clear
2:50 AM 68.0 °F - 64.4 °F 88% 29.95 in 10.0 mi Calm Calm - N/A   Clear
3:50 AM 68.0 °F - 64.4 °F 88% 29.93 in 10.0 mi Calm Calm - N/A   Clear
4:50 AM 66.2 °F - 64.4 °F 94% 29.94 in 10.0 mi Calm Calm - N/A   Clear
6:50 AM 75.2 °F - 55.4 °F 50% 29.96 in 10.0 mi North 5.8 mph - N/A   Mostly Cloudy
7:50 AM 71.6 °F - 66.2 °F 83% 29.97 in 10.0 mi Calm Calm - N/A   Mostly Cloudy
9:50 AM 82.4 °F 84.6 °F 66.2 °F 58% 30.00 in 10.0 mi East 11.5 mph - N/A   Mostly Cloudy
10:50 AM 82.4 °F 84.6 °F 66.2 °F 58% 29.99 in 10.0 mi NE 11.5 mph - N/A   Mostly Cloudy
11:50 AM 84.2 °F 87.3 °F 68.0 °F 58% 29.98 in 10.0 mi NNE 9.2 mph - N/A   Mostly Cloudy
12:50 PM 87.8 °F 92.6 °F 69.8 °F 55% 29.94 in 10.0 mi ENE 9.2 mph - N/A   Scattered Clouds
1:50 PM 87.8 °F 90.4 °F 66.2 °F 49% 29.93 in 10.0 mi East 9.2 mph - N/A   Scattered Clouds
2:50 PM 84.2 °F 86.6 °F 66.2 °F 55% 29.92 in 10.0 mi NNE 5.8 mph - N/A   Mostly Cloudy
4:50 PM 82.4 °F 84.6 °F 66.2 °F 58% 29.92 in 10.0 mi NE 9.2 mph - N/A   Scattered Clouds
5:50 PM 80.6 °F 82.7 °F 66.2 °F 61% 29.93 in 10.0 mi NE 5.8 mph - N/A   Partly Cloudy
6:50 PM 75.2 °F - 66.2 °F 73% 29.94 in 8.0 mi Calm Calm - N/A   Clear
8:55 PM 71.6 °F - 64.4 °F 78% 29.95 in 8.0 mi Calm Calm - N/A   Partly Cloudy
9:50 PM 73.4 °F - 66.2 °F 78% 29.96 in 8.0 mi Calm Calm - N/A   Mostly Cloudy
10:50 PM 73.4 °F - 66.2 °F 78% 29.97 in 8.0 mi Calm Calm - N/A   Mostly Cloudy
11:50 PM 73.4 °F - 66.2 °F 78% 29.97 in 8.0 mi Calm Calm - N/A   Mostly Cloudy